Location: Seoul
(37.5670°N, 127.0000°E)
Time: 11:13:05
(UTC+09:00)

BlueWalker 3 - Visible Passes

Search period start: 21 June 2024 00:00
Search period end: 01 July 2024 00:00
Orbit: 480 x 494 km, 53.2° (Epoch: 20 June)

Date Brightness Start Highest point End Pass type
(mag) Time Alt. Az. Time Alt. Az. Time Alt. Az.
21 Jun 4.0 03:03:50 10° NNW 03:07:08 29° NNE 03:10:26 10° E visible
21 Jun 4.7 21:40:06 10° W 21:43:02 21° NNW 21:45:56 10° NNE visible
22 Jun 4.0 02:38:10 10° NNW 02:41:26 27° NNE 02:44:39 10° E visible
22 Jun 2.4 04:16:11 10° WNW 04:19:36 35° SW 04:23:01 10° SSE visible
22 Jun 4.6 21:14:17 10° W 21:17:17 22° NNW 21:20:18 10° NNE visible
23 Jun 4.1 02:12:31 10° NNW 02:15:42 26° NNE 02:18:52 10° E visible
23 Jun 2.3 03:50:26 10° WNW 03:53:55 38° SW 03:57:24 10° SSE visible
23 Jun 4.5 20:48:29 10° W 20:51:33 23° NNW 20:54:37 10° NNE visible
24 Jun 4.1 01:46:50 10° NNW 01:49:58 24° NNE 01:53:04 10° E visible
24 Jun 2.1 03:24:41 10° WNW 03:28:13 41° SW 03:30:00 24° S visible
24 Jun 4.5 20:22:40 10° W 20:25:49 25° NNW 20:28:57 10° NNE visible
25 Jun 4.2 01:21:10 10° NNW 01:24:13 23° NNE 01:25:26 20° ENE visible
25 Jun 4.1 02:58:56 10° WNW 02:59:36 14° WNW 02:59:36 14° WNW visible
26 Jun 4.2 00:55:29 10° NNW 00:58:27 22° NNE 00:58:42 22° NE visible
27 Jun 4.3 00:29:48 10° NNW 00:32:40 21° NNE 00:32:40 21° NNE visible
28 Jun 4.3 00:04:06 10° NNW 00:06:55 20° NNE 00:06:58 20° NNE visible
28 Jun 4.3 23:38:25 10° NNW 23:41:08 19° NNE 23:41:26 19° NE visible
29 Jun 4.2 23:12:42 10° NNW 23:15:21 18° NNE 23:16:02 17° NE visible
30 Jun 4.8 00:50:07 10° NW 00:50:19 11° NW 00:50:19 11° NW visible
30 Jun 4.3 22:46:59 10° NNW 22:49:32 17° NNE 22:50:42 15° NE visible
